COSMOS 2251 DEB, 34754

Orbit data source: Space-Track

COSMOS 2251 DEB, 34754 is space debris in LEO originally from a launch on Wed, 16 Jun 1993 UTC launched from the Plesetsk Missile And Space Complex (PKMTR). The debris from Iridium 33, an American commercial communications satellite, has been tracked extensively since its accidental collision with the defunct Russian satellite Cosmos 2251 in 2009. This event, occurring at high speed in low Earth orbit (LEO), generated thousands of pieces of space debris, significantly increasing the risk of further collisions. The Iridium 33 debris cloud has impacted space traffic management and orbital debris mitigation strategies, making it a subject of ongoing study in space situational awareness.

Loading next visibility...
Identifier
34754, 1993-036ZY
Orbit
LEO
Country
Flag of CISCIS
Related business
Manufacturer
Unknown
Mission
Spacecraft
Bus & Motor
Unknown
Mass
Unknown
Launch date (UTC)
1993-06-16 (33 years ago)
Launch vehicle
Unknown
Launch site
Plesetsk Missile And Space Complex (PKMTR)
Object type
Payload
Rocket body
Debris
Shape & HBR
Unknown shape, 0.1 m
Radar Cross Section
Small (<0.1 m²)

Expand to show TLE details & history
Last TLE update: 2 days ago

TLE from 2 days ago
0 COSMOS 2251 DEB
1 34754U 93036ZY  26206.71782284  .00000515  00000-0  16838-3 0  9999
2 34754  74.0299 171.3306 0030618 236.1418 180.8514 14.40760087913737
Epoch: 2026-07-25T17:13Z
TLE epoch observation values (Epoch: 2026-07-25T17:13:39.893Z)
Latitude
53.83403°
Longitude
-7.59311°
Altitude
786.323 km
Speed
7.455 km/s
True Right ascension
12h 56m 59s
True Declination
53° 40' 14"
Sunlit
Object was in daylight at epoch
Visualization orbit readout
Latitude
Unknown
Longitude
Unknown
Altitude
Unknown
Speed
Unknown
Apparent Right ascension
Unknown
Apparent Declination
Unknown
Sunlit
N/A
Visualization observer readout
Local Sidereal Time
01:36:03
Azimuth
Unknown
Elevation
Unknown
Doppler factor
Unknown
Orbital elements
Apogee altitude
775.443 km
Perigee altitude
731.772 km
Semi-major axis
7,131.744 km
Eccentricity
0.00306
Inclination
74.0299°
RAAN
171.3306°
Arg. of periapsis
236.1418°
True anomaly
180.84621°
Mean anomaly
180.8514°
Eccentric anomaly
180.8488°
Mean motion
3.60371 °/min
Orbital period
99.9 mins
BSTAR
0.00016838
Loading maneuver chart data...
Computing Atmospheric mass density...

Documentation

Showing up to 5 results
|